Time,TemperatureF,DewpointF,PressureIn,WindDirection,WindDirectionDegrees,WindSpeedMPH,WindSpeedGustMPH,Humidity,HourlyPrecipIn,Conditions,Clouds,dailyrainin,SoftwareType,DateUTC
2013-04-15 00:03:00,45.0,25.0,30.22,ENE,61,1.0,28.0,46,0.00,,,0.00,,2013-04-15 04:03:00,
2013-04-15 00:13:00,45.0,25.0,30.22,ENE,61,1.0,28.0,46,0.00,,,0.00,,2013-04-15 04:13:00,
2013-04-15 00:23:00,45.0,25.0,30.22,ENE,78,2.0,2.0,45,0.00,,,0.00,,2013-04-15 04:23:00,
2013-04-15 00:33:00,45.0,26.0,30.23,ENE,73,1.0,7.0,47,0.00,,,0.00,,2013-04-15 04:33:00,
2013-04-15 00:43:00,45.0,26.0,30.23,ENE,73,1.0,7.0,47,0.00,,,0.00,,2013-04-15 04:43:00,
2013-04-15 00:53:00,45.0,26.0,30.23,ENE,73,1.0,7.0,47,0.00,,,0.00,,2013-04-15 04:53:00,
2013-04-15 01:03:00,45.0,26.0,30.23,ENE,73,1.0,7.0,47,0.00,,,0.00,,2013-04-15 05:03:00,
2013-04-15 01:13:00,45.0,26.0,30.23,ENE,73,1.0,7.0,47,0.00,,,0.00,,2013-04-15 05:13:00,
2013-04-15 01:33:00,44.0,26.0,30.24,NNE,14,2.0,7.0,48,0.00,,,0.00,,2013-04-15 05:33:00,
2013-04-15 01:43:00,44.0,26.0,30.24,NNE,14,2.0,7.0,48,0.00,,,0.00,,2013-04-15 05:43:00,
2013-04-15 01:53:00,44.0,26.0,30.24,NNE,30,0.0,7.0,49,0.00,,,0.00,,2013-04-15 05:53:00,
2013-04-15 02:02:00,43.0,28.0,30.23,NNE,29,0.0,7.0,54,0.00,,,0.00,,2013-04-15 06:02:00,
2013-04-15 02:12:00,43.0,28.0,30.23,NNE,29,0.0,7.0,54,0.00,,,0.00,,2013-04-15 06:12:00,
2013-04-15 02:23:00,43.0,28.0,30.23,NNE,29,0.0,7.0,54,0.00,,,0.00,,2013-04-15 06:23:00,
2013-04-15 02:33:00,42.0,29.0,30.23,NNE,29,0.0,7.0,60,0.00,,,0.00,,2013-04-15 06:33:00,
2013-04-15 02:42:00,42.0,29.0,30.23,NNE,29,0.0,7.0,60,0.00,,,0.00,,2013-04-15 06:42:00,
2013-04-15 02:53:00,41.0,28.0,30.23,NNE,28,0.0,7.0,59,0.00,,,0.00,,2013-04-15 06:53:00,
2013-04-15 03:03:00,41.0,30.0,30.23,NNE,29,0.0,7.0,64,0.00,,,0.00,,2013-04-15 07:03:00,
2013-04-15 03:41:00,41.0,30.0,30.23,NNE,29,0.0,7.0,64,0.00,,,0.00,,2013-04-15 07:41:00,
2013-04-15 03:43:00,40.0,30.0,30.24,NNE,29,0.0,7.0,67,0.00,,,0.00,,2013-04-15 07:43:00,
2013-04-15 03:54:00,40.0,30.0,30.24,NNE,29,1.0,7.0,67,0.00,,,0.00,,2013-04-15 07:54:00,
2013-04-15 04:02:00,40.0,31.0,30.25,North,0,0.0,7.0,69,0.00,,,0.00,,2013-04-15 08:02:00,
2013-04-15 04:22:00,40.0,31.0,30.25,North,0,0.0,7.0,69,0.00,,,0.00,,2013-04-15 08:22:00,
2013-04-15 04:33:00,40.0,29.0,30.26,North,349,1.0,7.0,65,0.00,,,0.00,,2013-04-15 08:33:00,
2013-04-15 04:42:00,40.0,29.0,30.26,North,349,1.0,7.0,65,0.00,,,0.00,,2013-04-15 08:42:00,
2013-04-15 04:52:00,40.0,29.0,30.26,North,350,0.0,7.0,65,0.00,,,0.00,,2013-04-15 08:52:00,
2013-04-15 05:03:00,40.0,29.0,30.27,North,349,1.0,7.0,64,0.00,,,0.00,,2013-04-15 09:03:00,
2013-04-15 05:12:00,40.0,29.0,30.27,North,349,1.0,7.0,64,0.00,,,0.00,,2013-04-15 09:12:00,
2013-04-15 05:23:00,40.0,28.0,30.28,North,350,0.0,7.0,63,0.00,,,0.00,,2013-04-15 09:23:00,
2013-04-15 05:33:00,40.0,31.0,30.29,North,349,0.0,7.0,69,0.00,,,0.00,,2013-04-15 09:33:00,
2013-04-15 05:43:00,40.0,31.0,30.29,North,349,0.0,7.0,69,0.00,,,0.00,,2013-04-15 09:43:00,
2013-04-15 05:53:00,40.0,31.0,30.29,North,350,0.0,7.0,70,0.00,,,0.00,,2013-04-15 09:53:00,
2013-04-15 06:02:00,40.0,31.0,30.30,North,350,0.0,7.0,71,0.00,,,0.00,,2013-04-15 10:02:00,
2013-04-15 06:13:00,40.0,31.0,30.30,North,350,0.0,7.0,71,0.00,,,0.00,,2013-04-15 10:13:00,
2013-04-15 06:23:00,40.0,30.0,30.31,North,350,1.0,7.0,67,0.00,,,0.00,,2013-04-15 10:23:00,
2013-04-15 06:33:00,40.0,29.0,30.31,North,350,1.0,7.0,65,0.00,,,0.00,,2013-04-15 10:33:00,
2013-04-15 06:42:00,40.0,29.0,30.31,North,350,1.0,7.0,65,0.00,,,0.00,,2013-04-15 10:42:00,
2013-04-15 06:53:00,40.0,29.0,30.31,North,359,1.0,7.0,65,0.00,,,0.00,,2013-04-15 10:53:00,
2013-04-15 07:03:00,41.0,31.0,30.31,North,0,0.0,7.0,66,0.00,,,0.00,,2013-04-15 11:03:00,
2013-04-15 07:12:00,41.0,31.0,30.31,North,0,0.0,7.0,66,0.00,,,0.00,,2013-04-15 11:12:00,
2013-04-15 07:23:00,41.0,31.0,30.32,North,359,0.0,7.0,67,0.00,,,0.00,,2013-04-15 11:23:00,
2013-04-15 07:32:00,41.0,31.0,30.32,North,352,1.0,7.0,66,0.00,,,0.00,,2013-04-15 11:32:00,
2013-04-15 07:43:00,41.0,31.0,30.32,North,352,1.0,7.0,66,0.00,,,0.00,,2013-04-15 11:43:00,
2013-04-15 07:54:00,41.0,31.0,30.32,North,352,1.0,7.0,66,0.00,,,0.00,,2013-04-15 11:54:00,
2013-04-15 08:04:00,43.0,30.0,30.34,North,352,1.0,7.0,60,0.00,,,0.00,,2013-04-15 12:04:00,
2013-04-15 08:14:00,43.0,30.0,30.34,North,352,1.0,7.0,60,0.00,,,0.00,,2013-04-15 12:14:00,
2013-04-15 08:23:00,44.0,30.0,30.35,North,3,1.0,7.0,57,0.00,,,0.00,,2013-04-15 12:23:00,
2013-04-15 08:34:00,45.0,27.0,30.36,East,82,1.0,7.0,49,0.00,,,0.00,,2013-04-15 12:34:00,
2013-04-15 08:43:00,45.0,27.0,30.36,East,82,1.0,7.0,49,0.00,,,0.00,,2013-04-15 12:43:00,
2013-04-15 08:53:00,45.0,26.0,30.36,East,84,2.0,7.0,47,0.00,,,0.00,,2013-04-15 12:53:00,
2013-04-15 09:04:00,46.0,27.0,30.37,ESE,117,0.0,10.0,47,0.00,,,0.00,,2013-04-15 13:04:00,
2013-04-15 09:13:00,46.0,27.0,30.37,ESE,117,0.0,10.0,47,0.00,,,0.00,,2013-04-15 13:13:00,
2013-04-15 09:23:00,46.0,27.0,30.37,ESE,117,0.0,10.0,47,0.00,,,0.00,,2013-04-15 13:23:00,
2013-04-15 09:33:00,46.0,27.0,30.37,East,96,1.0,10.0,47,0.00,,,0.00,,2013-04-15 13:33:00,
2013-04-15 09:43:00,46.0,27.0,30.37,East,96,1.0,10.0,47,0.00,,,0.00,,2013-04-15 13:43:00,
2013-04-15 09:54:00,46.0,27.0,30.37,SE,135,2.0,10.0,47,0.00,,,0.00,,2013-04-15 13:54:00,
2013-04-15 10:05:00,46.0,27.0,30.37,East,90,3.0,10.0,47,0.00,,,0.00,,2013-04-15 14:05:00,
2013-04-15 10:13:00,46.0,27.0,30.37,East,90,3.0,10.0,47,0.00,,,0.00,,2013-04-15 14:13:00,
2013-04-15 10:22:00,47.0,26.0,30.37,ESE,105,1.0,10.0,44,0.00,,,0.00,,2013-04-15 14:22:00,
2013-04-15 10:33:00,48.0,28.0,30.37,SE,131,1.0,10.0,45,0.00,,,0.00,,2013-04-15 14:33:00,
2013-04-15 10:44:00,48.0,28.0,30.37,SE,131,1.0,10.0,45,0.00,,,0.00,,2013-04-15 14:44:00,
2013-04-15 10:55:00,48.0,28.0,30.37,SE,131,1.0,10.0,45,0.00,,,0.00,,2013-04-15 14:55:00,
2013-04-15 11:03:00,48.0,27.0,30.37,ENE,77,5.0,10.0,44,0.00,,,0.00,,2013-04-15 15:03:00,
2013-04-15 11:13:00,48.0,27.0,30.37,ENE,77,5.0,10.0,44,0.00,,,0.00,,2013-04-15 15:13:00,
2013-04-15 11:24:00,48.0,27.0,30.37,ENE,77,5.0,10.0,44,0.00,,,0.00,,2013-04-15 15:24:00,
2013-04-15 11:35:00,49.0,30.0,30.36,SE,133,5.0,10.0,48,0.00,,,0.00,,2013-04-15 15:35:00,
2013-04-15 11:44:00,49.0,30.0,30.36,SE,133,5.0,10.0,48,0.00,,,0.00,,2013-04-15 15:44:00,
2013-04-15 11:55:00,49.0,30.0,30.36,ESE,114,3.0,10.0,47,0.00,,,0.00,,2013-04-15 15:55:00,
2013-04-15 12:05:00,49.0,31.0,30.35,ESE,104,7.0,12.0,49,0.00,,,0.00,,2013-04-15 16:05:00,
2013-04-15 12:14:00,50.0,31.0,30.35,ESE,116,6.0,12.0,48,0.00,,,0.00,,2013-04-15 16:14:00,
2013-04-15 12:24:00,50.0,31.0,30.35,ESE,116,6.0,12.0,48,0.00,,,0.00,,2013-04-15 16:24:00,
2013-04-15 12:34:00,50.0,32.0,30.35,ENE,71,5.0,12.0,50,0.00,,,0.00,,2013-04-15 16:34:00,
2013-04-15 12:44:00,50.0,32.0,30.35,ENE,71,5.0,12.0,50,0.00,,,0.00,,2013-04-15 16:44:00,
2013-04-15 12:54:00,50.0,32.0,30.35,ENE,71,5.0,12.0,50,0.00,,,0.00,,2013-04-15 16:54:00,
2013-04-15 13:04:00,51.0,33.0,30.34,ESE,112,3.0,12.0,50,0.00,,,0.00,,2013-04-15 17:04:00,
2013-04-15 13:15:00,51.0,33.0,30.34,ESE,112,3.0,12.0,50,0.00,,,0.00,,2013-04-15 17:15:00,
2013-04-15 13:22:00,51.0,33.0,30.34,ESE,112,3.0,12.0,50,0.00,,,0.00,,2013-04-15 17:22:00,
2013-04-15 13:33:00,51.0,33.0,30.34,East,90,6.0,12.0,49,0.00,,,0.00,,2013-04-15 17:33:00,
2013-04-15 13:43:00,51.0,33.0,30.34,East,90,6.0,12.0,49,0.00,,,0.00,,2013-04-15 17:43:00,
2013-04-15 13:53:00,51.0,33.0,30.34,East,90,6.0,12.0,49,0.00,,,0.00,,2013-04-15 17:53:00,
2013-04-15 14:03:00,52.0,33.0,30.33,East,100,5.0,12.0,48,0.00,,,0.00,,2013-04-15 18:03:00,
2013-04-15 14:13:00,52.0,33.0,30.33,East,100,5.0,12.0,48,0.00,,,0.00,,2013-04-15 18:13:00,
2013-04-15 14:24:00,52.0,33.0,30.33,ESE,114,5.0,12.0,48,0.00,,,0.00,,2013-04-15 18:24:00,
2013-04-15 14:33:00,52.0,37.0,30.32,ESE,118,3.0,12.0,56,0.00,,,0.00,,2013-04-15 18:33:00,
2013-04-15 14:42:00,52.0,37.0,30.32,ESE,118,3.0,12.0,56,0.00,,,0.00,,2013-04-15 18:42:00,
2013-04-15 14:52:00,52.0,37.0,30.32,ESE,118,3.0,12.0,56,0.00,,,0.00,,2013-04-15 18:52:00,
2013-04-15 15:02:00,51.0,35.0,30.33,ESE,122,3.0,12.0,54,0.00,,,0.00,,2013-04-15 19:02:00,
2013-04-15 15:12:00,51.0,35.0,30.33,ESE,122,3.0,12.0,54,0.00,,,0.00,,2013-04-15 19:12:00,
2013-04-15 15:22:00,51.0,35.0,30.33,SSE,150,7.0,14.0,54,0.00,,,0.00,,2013-04-15 19:22:00,
2013-04-15 15:38:00,51.0,34.0,30.32,East,95,7.0,14.0,53,0.00,,,0.00,,2013-04-15 19:38:00,
2013-04-15 15:59:00,51.0,34.0,30.32,ESE,104,7.0,14.0,52,0.00,,,0.00,,2013-04-15 19:59:00,
2013-04-15 16:02:00,53.0,35.0,30.32,East,79,6.0,14.0,51,0.00,,,0.00,,2013-04-15 20:02:00,
2013-04-15 16:11:00,53.0,35.0,30.32,East,79,6.0,14.0,51,0.00,,,0.00,,2013-04-15 20:11:00,
2013-04-15 16:22:00,52.0,34.0,30.32,ESE,108,5.0,14.0,50,0.00,,,0.00,,2013-04-15 20:22:00,
2013-04-15 16:32:00,53.0,35.0,30.31,ESE,114,3.0,14.0,51,0.00,,,0.00,,2013-04-15 20:32:00,
2013-04-15 16:42:00,53.0,35.0,30.31,ESE,114,3.0,14.0,51,0.00,,,0.00,,2013-04-15 20:42:00,
2013-04-15 16:52:00,52.0,34.0,30.30,East,88,6.0,14.0,50,0.00,,,0.00,,2013-04-15 20:52:00,
2013-04-15 17:02:00,51.0,36.0,30.30,ENE,73,5.0,14.0,56,0.00,,,0.00,,2013-04-15 21:02:00,
2013-04-15 17:12:00,51.0,36.0,30.30,ENE,73,5.0,14.0,56,0.00,,,0.00,,2013-04-15 21:12:00,
2013-04-15 17:22:00,51.0,36.0,30.31,East,101,6.0,14.0,57,0.00,,,0.00,,2013-04-15 21:22:00,
2013-04-15 17:33:00,51.0,34.0,30.31,ESE,102,5.0,14.0,53,0.00,,,0.00,,2013-04-15 21:33:00,
2013-04-15 17:43:00,51.0,34.0,30.31,ESE,102,5.0,14.0,53,0.00,,,0.00,,2013-04-15 21:43:00,
2013-04-15 17:53:00,51.0,34.0,30.32,East,84,3.0,14.0,52,0.00,,,0.00,,2013-04-15 21:53:00,
2013-04-15 18:00:00,52.0,34.0,30.32,ENE,75,3.0,14.0,51,0.00,,,0.00,,2013-04-15 22:00:00,
2013-04-15 18:02:00,51.0,35.0,30.32,East,95,3.0,14.0,54,0.00,,,0.00,,2013-04-15 22:02:00,
2013-04-15 18:13:00,51.0,35.0,30.32,East,95,3.0,14.0,54,0.00,,,0.00,,2013-04-15 22:13:00,
2013-04-15 18:23:00,52.0,34.0,30.32,ENE,75,3.0,14.0,51,0.00,,,0.00,,2013-04-15 22:23:00,
2013-04-15 18:33:00,52.0,34.0,30.32,ENE,75,3.0,14.0,51,0.00,,,0.00,,2013-04-15 22:33:00,
2013-04-15 18:42:00,52.0,34.0,30.32,ENE,75,3.0,14.0,51,0.00,,,0.00,,2013-04-15 22:42:00,
2013-04-15 18:52:00,52.0,34.0,30.32,ENE,75,3.0,14.0,51,0.00,,,0.00,,2013-04-15 22:52:00,
2013-04-15 19:32:00,51.0,36.0,30.33,ESE,110,2.0,14.0,57,0.00,,,0.00,,2013-04-15 23:32:00,
2013-04-15 19:42:00,51.0,36.0,30.33,ESE,110,2.0,14.0,57,0.00,,,0.00,,2013-04-15 23:42:00,
2013-04-15 19:52:00,51.0,36.0,30.33,ESE,110,2.0,14.0,57,0.00,,,0.00,,2013-04-15 23:52:00,
2013-04-15 20:02:00,49.0,37.0,30.34,ESE,113,1.0,14.0,64,0.00,,,0.00,,2013-04-16 00:02:00,
2013-04-15 20:12:00,49.0,37.0,30.34,ESE,113,1.0,14.0,64,0.00,,,0.00,,2013-04-16 00:12:00,
2013-04-15 20:22:00,49.0,37.0,30.34,ESE,113,1.0,14.0,64,0.00,,,0.00,,2013-04-16 00:22:00,
2013-04-15 20:32:00,48.0,38.0,30.35,ESE,117,1.0,14.0,68,0.00,,,0.00,,2013-04-16 00:32:00,
2013-04-15 20:42:00,48.0,38.0,30.35,ESE,117,1.0,14.0,68,0.00,,,0.00,,2013-04-16 00:42:00,
2013-04-15 20:52:00,48.0,39.0,30.35,ESE,119,1.0,14.0,72,0.00,,,0.00,,2013-04-16 00:52:00,
2013-04-15 21:02:00,47.0,39.0,30.36,ESE,119,1.0,14.0,73,0.00,,,0.00,,2013-04-16 01:02:00,
2013-04-15 21:12:00,47.0,39.0,30.36,ESE,119,1.0,14.0,73,0.00,,,0.00,,2013-04-16 01:12:00,
2013-04-15 21:22:00,47.0,39.0,30.36,ESE,119,1.0,14.0,73,0.00,,,0.00,,2013-04-16 01:22:00,
2013-04-15 21:32:00,47.0,39.0,30.36,ESE,119,1.0,14.0,73,0.00,,,0.00,,2013-04-16 01:32:00,
2013-04-15 21:42:00,47.0,39.0,30.36,ESE,119,1.0,14.0,73,0.00,,,0.00,,2013-04-16 01:42:00,
2013-04-15 21:52:00,47.0,35.0,30.37,SSE,165,1.0,14.0,64,0.00,,,0.00,,2013-04-16 01:52:00,
2013-04-15 22:02:00,47.0,37.0,30.38,South,172,0.0,14.0,67,0.00,,,0.00,,2013-04-16 02:02:00,
2013-04-15 22:12:00,47.0,37.0,30.38,South,172,0.0,14.0,67,0.00,,,0.00,,2013-04-16 02:12:00,
2013-04-15 22:22:00,47.0,37.0,30.38,South,172,0.0,14.0,67,0.00,,,0.00,,2013-04-16 02:22:00,
2013-04-15 22:32:00,47.0,35.0,30.38,South,172,0.0,14.0,63,0.00,,,0.00,,2013-04-16 02:32:00,
2013-04-15 22:42:00,47.0,35.0,30.38,South,172,0.0,14.0,63,0.00,,,0.00,,2013-04-16 02:42:00,
2013-04-15 22:52:00,47.0,36.0,30.38,South,172,0.0,14.0,65,0.00,,,0.00,,2013-04-16 02:52:00,
2013-04-15 23:02:00,46.0,36.0,30.38,South,172,0.0,14.0,68,0.00,,,0.00,,2013-04-16 03:02:00,
2013-04-15 23:12:00,46.0,36.0,30.38,South,172,0.0,14.0,68,0.00,,,0.00,,2013-04-16 03:12:00,
2013-04-15 23:22:00,46.0,36.0,30.38,South,172,0.0,14.0,68,0.00,,,0.00,,2013-04-16 03:22:00,
2013-04-15 23:33:00,45.0,37.0,30.38,South,174,0.0,14.0,74,0.00,,,0.00,,2013-04-16 03:33:00,
2013-04-15 23:43:00,45.0,37.0,30.38,South,174,0.0,14.0,74,0.00,,,0.00,,2013-04-16 03:43:00,
2013-04-15 23:53:00,45.0,38.0,30.38,South,172,0.0,14.0,75,0.00,,,0.00,,2013-04-16 03:53:00,